Rogers, AR

11:00 PM CST on December 10, 2017 (GMT -0600)
Rogers Municipal-Carter

Weather History for KROG - May, 2014

Change the Weather History Date:

Friday, May 23, 2014

  Actual Average Record
Temperature  
Mean Temperature 72 °F -  
Max Temperature 81 °F 73 °F 88 °F (2012)
Min Temperature 63 °F 55 °F 44 °F (2001)
Cooling Degree Days 7    
Growing Degree Days 22 (Base 50)    
Moisture  
Dew Point 62 °F    
Average Humidity 75    
Maximum Humidity 90    
Minimum Humidity 47    
Precipitation  
Precipitation 0.16 in - - ()
Sea Level Pressure  
Sea Level Pressure 30.08 in    
Wind  
Wind Speed 3 mph (ESE)    
Max Wind Speed 10 mph    
Max Gust Speed -    
Visibility 10 miles    
Events Rain , Thunderstorm    
Averages and records for this station are not official NWS values.
T = Trace of Precipitation, MM = Missing Value Source: NWS Daily Summary

Daily Weather History Graph

Daily Weather History Graph

Search for Another Location

Airport or City:

Trip Planner

Search our weather history database for the weather conditions in past years. The results will help you decide how hot, cold, wet, or windy it might be!

Date:

Astronomy

May. 23, 2014 Rise Set
Actual Time 6:04 AM CDT 8:22 PM CDT
Civil Twilight 5:34 AM CDT 8:51 PM CDT
Nautical Twilight 4:58 AM CDT 9:28 PM CDT
Astronomical Twilight 4:19 AM CDT 10:07 PM CDT
Moon 2:49 AM CDT (5/23) 3:24 PM CDT (5/23)
Length of Visible Light 15h 16m
Length of Day
14h 18m
Waning Crescent, 27% of the Moon is Illuminated
May 23
Waning Crescent
May 28
New
Jun 5
First Quarter
Jun 12
Full
Jun 19
Last Quarter

Hourly Weather History & Observations

Time (CDT) Temp. Heat Index Dew Point Humidity Pressure Visibility Wind Dir Wind Speed Gust Speed Precip Events Conditions
12:57 AM 66.0 °F - 61.0 °F 84% 30.10 in 10.0 mi Calm Calm - N/A   Clear
1:57 AM 64.9 °F - 61.0 °F 87% 30.09 in 10.0 mi Calm Calm - N/A   Partly Cloudy
2:57 AM 64.0 °F - 60.1 °F 87% 30.08 in 10.0 mi Calm Calm - N/A   Clear
3:57 AM 63.0 °F - 60.1 °F 90% 30.08 in 10.0 mi SSE 3.5 mph - N/A   Clear
4:57 AM 64.0 °F - 59.0 °F 84% 30.08 in 10.0 mi SSE 4.6 mph - N/A   Clear
5:57 AM 63.0 °F - 59.0 °F 87% 30.08 in 10.0 mi Calm Calm - N/A   Clear
6:57 AM 64.0 °F - 60.1 °F 87% 30.10 in 10.0 mi SE 3.5 mph - N/A   Mostly Cloudy
7:57 AM 66.0 °F - 61.0 °F 84% 30.11 in 10.0 mi SSE 5.8 mph - N/A   Mostly Cloudy
8:57 AM 72.0 °F - 63.0 °F 73% 30.12 in 10.0 mi SSE 4.6 mph - N/A   Scattered Clouds
9:57 AM 77.0 °F - 63.0 °F 62% 30.12 in 10.0 mi SW 9.2 mph - N/A   Clear
10:57 AM 80.1 °F 81.2 °F 62.1 °F 54% 30.11 in 10.0 mi WSW 4.6 mph - N/A   Partly Cloudy
11:57 AM 80.1 °F 80.7 °F 59.0 °F 48% 30.12 in 10.0 mi SW 8.1 mph - N/A   Mostly Cloudy
12:57 PM 81.0 °F 81.3 °F 59.0 °F 47% 30.10 in 10.0 mi East 5.8 mph - N/A   Mostly Cloudy
1:57 PM 81.0 °F 81.6 °F 60.1 °F 49% 30.09 in 10.0 mi SE 5.8 mph - N/A   Scattered Clouds
3:57 PM 81.0 °F 81.3 °F 59.0 °F 47% 30.05 in 10.0 mi East 8.1 mph - N/A   Mostly Cloudy
4:57 PM 75.9 °F - 64.9 °F 69% 30.05 in 10.0 mi NW 6.9 mph - N/A   Overcast
5:57 PM 75.9 °F - 64.0 °F 67% 30.04 in 10.0 mi NNE 3.5 mph - N/A   Clear
6:57 PM 77.0 °F - 66.0 °F 69% 30.04 in 10.0 mi NE 3.5 mph - N/A   Clear
7:57 PM 75.0 °F - 66.9 °F 76% 30.04 in 10.0 mi Calm Calm - N/A   Scattered Clouds
8:11 PM 73.4 °F - 66.2 °F 78% 30.07 in 10.0 mi NNE 4.6 mph - N/A Thunderstorm Thunderstorm
8:57 PM 66.9 °F - 64.0 °F 90% 30.06 in 10.0 mi NW 9.2 mph - 0.16 in Rain , Thunderstorm Light Thunderstorms and Rain
9:02 PM 66.2 °F - 62.6 °F 88% 30.10 in 10.0 mi NNW 10.4 mph - 0.00 in Rain Light Rain
9:57 PM 66.9 °F - 63.0 °F 87% 30.07 in 10.0 mi North 3.5 mph - 0.00 in   Overcast
10:57 PM 66.0 °F - 63.0 °F 90% 30.07 in 10.0 mi Calm Calm - N/A   Clear
11:57 PM 68.0 °F - 64.0 °F 87% 30.06 in 10.0 mi East 5.8 mph - N/A   Clear